Lid_Strength_Index
2 2 2 2 1 2 3 3 3 3 3 3 3 3 3 2 3 6 9 6 4 0 -1 5 6 7 8 9 8 8 13 15 12 11 9 7 9 8 8 10 8 8 6 4 5
3 2 2 2 2 2 3 3 3 3 3 3 3 3 3 3 7 8 4 1 -0 -1 4 6 8 9 10 10 9 11 14 13 10 8 9 8 9 8 9 9 10 9 6 5 6
3 2 2 2 2 3 3 3 3 3 2 3 3 3 3 3 8 5 -1 0 -2 -1 7 8 9 10 12 10 10 11 13 10 9 8 8 8 8 7 9 10 9 9 7 6 6
3 3 3 2 2 3 3 3 3 3 3 3 3 3 2 6 11 6 -2 -1 -2 3 8 7 7 11 13 13 11 13 10 9 9 8 9 9 7 7 8 8 7 7 6 6 6
3 3 3 3 3 3 3 3 3 3 3 3 3 3 6 10 9 4 -1 -1 2 5 6 6 9 12 13 13 12 14 12 10 9 9 9 8 8 8 8 7 7 6 7 6 6
3 3 3 3 3 3 3 3 3 3 3 3 3 2 7 14 9 1 2 2 5 6 5 6 7 9 12 12 12 11 11 10 10 10 10 9 9 8 7 6 7 7 7 7 5
4 4 4 4 3 3 3 3 2 2 3 3 3 3 7 12 5 1 4 6 6 4 5 5 5 9 10 11 11 11 13 12 11 10 11 9 11 11 8 6 7 8 8 8 6
4 4 4 4 3 3 3 3 2 2 2 2 2 5 10 6 6 5 5 5 4 4 4 4 6 9 11 11 11 13 14 16 12 10 9 10 14 9 8 8 8 8 8 8 7
4 5 5 4 4 3 3 3 2 2 1 2 6 8 9 2 4 4 5 5 4 4 5 4 8 10 10 14 15 15 17 16 13 10 10 11 13 10 8 8 9 8 8 8 8
5 5 5 5 4 4 4 3 3 3 3 3 4 9 7 6 3 4 5 5 6 6 7 8 11 12 14 14 18 16 16 14 15 11 11 12 13 11 9 9 9 9 8 8 7
5 5 5 5 5 5 6 7 8 9 7 8 8 8 6 3 2 6 6 6 6 8 12 11 13 15 13 12 12 12 13 14 12 9 12 12 12 11 10 10 10 10 9 8 8
5 5 5 5 6 6 8 10 7 7 10 7 6 7 5 4 6 5 6 9 10 12 11 13 14 11 10 11 11 12 14 13 12 10 12 12 12 11 10 10 9 9 8 8 9
6 6 6 6 6 8 9 8 6 7 11 9 7 7 6 5 7 6 6 8 10 12 12 14 12 9 10 11 12 12 14 13 13 11 11 12 13 12 10 9 8 8 8 8 8
6 6 6 6 9 9 9 6 7 7 14 11 9 7 6 6 8 4 5 8 10 12 12 13 10 11 11 12 12 15 10 10 11 13 16 12 16 13 11 11 9 8 9 9 9
6 6 7 7 11 11 8 8 7 8 19 9 9 6 7 9 9 8 6 8 11 11 12 12 12 12 13 12 10 12 9 10 10 13 15 14 16 13 12 12 10 9 8 8 8
6 6 7 9 10 10 8 8 8 14 18 10 10 11 11 11 10 9 8 8 8 11 11 11 10 11 11 10 9 8 10 11 12 15 17 14 15 14 12 11 10 9 7 6 7
6 6 7 8 12 9 9 8 15 17 10 12 12 11 12 12 11 10 11 12 13 16 15 12 12 11 9 11 10 12 14 18 19 19 18 13 14 13 10 9 9 9 8 7 7
6 7 7 8 9 9 8 12 18 14 13 11 12 12 13 12 12 11 12 14 12 14 16 16 17 11 8 11 12 13 13 17 22 21 18 13 18 13 9 7 7 7 8 7 8
7 9 9 7 7 9 10 16 16 12 12 13 12 14 14 13 13 13 14 13 12 12 15 16 15 10 9 9 10 13 15 12 16 17 19 17 14 10 8 8 7 7 8 8 8
10 11 10 6 7 8 13 16 13 10 11 11 15 13 16 14 15 15 15 11 11 10 12 13 17 11 9 9 10 11 10 16 16 21 23 18 17 15 11 10 8 8 8 8 8
11 12 8 5 6 10 15 13 11 9 10 12 14 15 15 15 14 14 14 11 10 11 11 12 14 14 12 13 14 13 15 15 14 16 20 22 17 10 11 10 9 8 8 8 8
11 13 7 6 10 12 13 11 10 10 9 10 11 13 14 14 14 13 13 11 10 11 13 12 14 17 14 12 9 11 12 13 18 18 16 18 17 8 8 8 8 8 7 6 6
11 12 7 7 13 14 12 11 10 10 10 11 12 12 13 14 16 13 12 10 10 10 12 11 15 17 17 14 11 13 12 12 13 14 17 19 17 8 8 9 8 8 7 7 6
11 12 10 9 10 12 13 12 12 9 9 10 11 11 13 14 13 15 14 11 10 10 7 10 15 16 17 15 13 14 12 12 13 17 17 16 14 11 9 10 8 8 7 7 7
8 9 11 14 12 11 11 11 12 12 10 10 12 12 14 16 15 15 13 12 11 9 12 13 16 14 13 11 11 12 12 12 14 13 16 13 13 12 11 10 8 7 7 7 7
11 9 8 10 9 10 11 11 12 12 12 12 13 12 12 15 14 16 14 14 14 12 14 14 16 14 14 11 12 13 11 11 11 11 12 11 13 10 9 8 8 8 7 7 7
9 6 8 9 10 11 11 10 11 11 10 10 10 11 12 12 11 11 12 12 13 13 14 14 15 15 16 13 13 16 13 13 12 11 12 15 12 9 9 9 8 8 7 7 6